Location: Red Bud (historical)
(37.7759°N, 88.4053°W)
Time: 06:10:16
(UTC+00:00)

Tiangong - Pass Details

Date: 21 June 2021
Orbit: 373 x 385 km, 41.5° (Epoch: 04 August)

Event Time Altitude Azimuth Distance (km) Brightness Sun altitude
Exits shadow 07:56:34 15° 100° (E) 1,126 3.6 -22.5°
Drops below altitude 10° 07:57:23 10° 90° (E) 1,392 4.2 -22.4°
Sets 07:59:45 0° 77° (ENE) 2,294 5.6 -22.2°
